Home   Weather   Kelowna   Past weeks

Flag for Canada Past Weather in Kelowna, British Columbia, Canada — Yesterday and Last 2 Weeks

Now
28 °F

Partly sunny.


Feels Like: 28 °F
Forecast: 16 / 31 °F
Wind: 2 mph from Northeast

Location: Kelowna Airport

Current Time: Feb 24, 2017 at 9:53:20 am

Latest Report: Feb 24, 2017 at 9:00 am


Visibility: 9 mi

Pressure: 30.22 "Hg

Humidity: 74%

Dew Point: 21 °F

Location of KelownaLocation

Past Weather in Kelowna — Graph

°F

Kelowna Temperature Yesterday

Maximum temperature yesterday: 36 °F (at 2:00 pm)
Minimum temperature yesterday: 14 °F (at 5:00 am)
Average temperature yesterday: 25 °F

High & Low Weather Summary for the Past Weeks

 TemperatureHumidityPressure
High46 °F (Feb 16, 2:00 pm)100% (Feb 10, 7:58 am)30.61 "Hg (Feb 10, 7:58 am)
Low12 °F (Feb 13, 8:00 am)45% (Feb 22, 12:00 pm)29.39 "Hg (Feb 16, 2:00 pm)
Average31 °F86%29.87 "Hg
* Reported Feb 9 8:03 am — Feb 24 8:00 am, Kelowna, Weather by CustomWeather, © 2017

Note: Actual official high and low records may vary slightly from our data, if they occured in-between our weather recording intervals... More about our weather records

Advertising

Kelowna Weather History for the Previous 24 Hours

Scroll right to see more
 ConditionsComfort  
Time TempWeatherWind HumidityBarometerVisibility
8:00 am
Fri, Feb 24
25 °FSunny.2 mph86%30.21 "Hg9 mi
7:00 am25 °FPartly sunny.No wind86%30.19 "Hg9 mi
6:00 am27 °FOvercast.2 mph80%30.17 "Hg9 mi
5:00 am27 °FOvercast.No wind80%30.16 "Hg9 mi
4:00 am27 °FOvercast.3 mph80%30.15 "Hg9 mi
3:00 am27 °FPassing clouds.2 mph86%30.14 "Hg9 mi
2:00 am27 °FOvercast.No wind80%30.14 "Hg9 mi
1:00 am27 °FOvercast.2 mph80%30.14 "Hg9 mi
12:00 am28 °FOvercast.6 mph74%30.14 "Hg9 mi
11:00 pm
Thu, Feb 23
27 °FPassing clouds.3 mph80%30.14 "Hg9 mi
10:00 pm27 °FPassing clouds.3 mph86%30.14 "Hg9 mi
9:00 pm30 °FOvercast.2 mph75%30.13 "Hg9 mi
8:00 pm28 °FOvercast.No wind80%30.14 "Hg9 mi
7:00 pm27 °FOvercast.No wind86%30.15 "Hg9 mi
6:00 pm30 °FOvercast.5 mph75%30.15 "Hg9 mi
5:00 pm36 °FSunny.5 mph60%30.14 "Hg9 mi
4:00 pm34 °FPartly sunny.No wind65%30.16 "Hg9 mi
3:00 pm36 °FOvercast.No wind60%30.17 "Hg9 mi
2:00 pm36 °FPartly sunny.2 mph56%30.19 "Hg9 mi
1:00 pm34 °FSunny.2 mph60%30.20 "Hg9 mi
12:00 pm32 °FSunny.2 mph69%30.22 "Hg9 mi
11:00 am30 °FSunny.2 mph75%30.24 "Hg9 mi
10:00 am27 °FSunny.2 mph80%30.26 "Hg9 mi
9:00 am23 °FSunny.No wind80%30.27 "Hg9 mi
Weather by CustomWeather, © 2017

See weather overviewHow to use our weather pages